THOR ABLESTAR DEB, 1608

Orbit data source: Space-Track

THOR ABLESTAR DEB, 1608 is space debris in LEO originally from a launch on Sun, 13 Dec 1964 UTC launched from the Air Force Western Test Range (AFWTR). Debris objects in space refer to the collection of defunct objects orbiting the Earth. Examples of debris include non-operational satellites, rocket bodies, and fragments generated from explosions, collisions, or faulty payload assembly.

Loading next visibility...
Identifier
1608, 1964-083H
Orbit
LEO
Country
Flag of USUS
Related business
Manufacturer
Unknown
Mission
Spacecraft
Bus & Motor
Unknown
Mass
Unknown
Launch date (UTC)
1964-12-13 (61 years ago)
Launch vehicle
Unknown
Launch site
Air Force Western Test Range (AFWTR)
Object type
Payload
Rocket body
Debris
Shape & HBR
Unknown shape, 0.1 m
Radar Cross Section
Small (<0.1 m²)

Expand to show TLE details & history
Last TLE update: 18 hours ago

TLE from 18 hours ago
0 THOR ABLESTAR DEB
1  1608U 64083H   26035.53883862  .00001043  00000-0  89638-3 0  9990
2  1608  89.7566  69.6859 0018325 154.6332  10.0755 13.85992739 56548
Epoch: 2026-02-04T12:55Z
TLE epoch observation values (Epoch: 2026-02-04T12:55:55.656Z)
Latitude
15.22909°
Longitude
-79.06589°
Altitude
931.809 km
Speed
7.394 km/s
True Right ascension
16h 38m 28s
True Declination
15° 08' 39"
Sunlit
Object was in daylight at epoch
Visualization orbit readout
Latitude
Unknown
Longitude
Unknown
Altitude
Unknown
Speed
Unknown
Apparent Right ascension
Unknown
Apparent Declination
Unknown
Sunlit
N/A
Visualization observer readout
Local Sidereal Time
08:45:18
Azimuth
Unknown
Elevation
Unknown
Doppler factor
Unknown
Orbital elements
Apogee altitude
953.115 km
Perigee altitude
926.296 km
Semi-major axis
7,317.842 km
Eccentricity
0.00183
Inclination
89.7566°
RAAN
69.6859°
Arg. of periapsis
154.6332°
True anomaly
10.11232°
Mean anomaly
10.0755°
Eccentric anomaly
10.0939°
Mean motion
3.46712 °/min
Orbital period
103.83 mins
BSTAR
0.00089638

Documentation

Showing up to 5 results
|